GW4841 Weather Reports


Display with metric or nautical units.
time (UTC)temp
F
wind
direction
speed
MPH
gust
MPH
rain 1hr
in
rain 24hr
in
rain mn
in
humidity
%
barometer
mb
20260504231323 83 36 2.0 3.0 0.00 0.00 0.00 69 1016.6
20260504230819 83 60 0.0 2.0 0.00 0.00 0.00 69 1016.5
20260504230317 83 17 1.0 2.0 0.00 0.00 0.00 69 1016.5
20260504225816 83 42 0.0 2.0 0.00 0.00 0.00 69 1016.3
20260504225311 84 40 3.0 3.0 0.00 0.00 0.00 68 1016.1
20260504224809 84 337 0.0 3.0 0.00 0.00 0.00 68 1016.3
20260504224306 84 34 3.0 4.0 0.00 0.00 0.00 68 1016.2
20260504223802 84 43 3.0 3.0 0.00 0.00 0.00 68 1015.9
20260504223258 84 45 0.0 1.0 0.00 0.00 0.00 67 1016.1
20260504222755 85 166 1.0 6.0 0.00 0.00 0.00 66 1016.1
20260504222251 85 47 1.0 3.0 0.00 0.00 0.00 67 1015.7
20260504221749 85 47 1.0 3.0 0.00 0.00 0.00 66 1015.7
20260504221246 85 48 3.0 6.0 0.00 0.00 0.00 66 1015.5
20260504220743 85 48 0.0 1.0 0.00 0.00 0.00 65 1015.4
20260504220240 86 58 2.0 7.0 0.00 0.00 0.00 64 1015.5
20260504215737 86 106 2.0 8.0 0.00 0.00 0.00 64 1015.4
20260504215234 86 56 1.0 3.0 0.00 0.00 0.00 63 1015.5
20260504214730 86 185 1.0 6.0 0.00 0.00 0.00 63 1015.2
20260504214226 86 122 3.0 6.0 0.00 0.00 0.00 63 1015.2
20260504213723 86 87 4.0 6.0 0.00 0.00 0.00 63 1015.1
20260504213219 87 78 0.0 6.0 0.00 0.00 0.00 61 1015.2
20260504212717 89 258 2.0 3.0 0.00 0.00 0.00 59 1015.0
20260504212214 89 120 1.0 4.0 0.00 0.00 0.00 59 1014.9
20260504211711 88 14 1.0 4.0 0.00 0.00 0.00 61 1015.0
20260504211207 88 51 1.0 4.0 0.00 0.00 0.00 61 1015.0
20260504210704 89 34 2.0 3.0 0.00 0.00 0.00 59 1014.9
20260504210201 88 205 2.0 4.0 0.00 0.00 0.00 60 1015.0
20260504205658 90 112 5.0 9.0 0.00 0.00 0.00 59 1015.0
20260504205155 90 187 0.0 4.0 0.00 0.00 0.00 58 1014.7
20260504204654 89 149 1.0 4.0 0.00 0.00 0.00 59 1014.9
20260504204153 90 317 0.0 10.0 0.00 0.00 0.00 59 1014.8
20260504203651 90 257 2.0 7.0 0.00 0.00 0.00 58 1014.7
20260504203149 90 53 1.0 7.0 0.00 0.00 0.00 59 1014.7
20260504202648 90 154 2.0 4.0 0.00 0.00 0.00 58 1014.6
20260504202146 91 229 2.0 3.0 0.00 0.00 0.00 57 1014.6
20260504201643 91 278 1.0 10.0 0.00 0.00 0.00 57 1014.7
20260504201140 91 30 2.0 6.0 0.00 0.00 0.00 56 1014.6
20260504200637 91 247 3.0 7.0 0.00 0.00 0.00 56 1014.6
20260504200134 91 66 4.0 9.0 0.00 0.00 0.00 56 1014.6
20260504195630 90 177 3.0 4.0 0.00 0.00 0.00 57 1014.7
20260504195126 91 75 5.0 8.0 0.00 0.00 0.00 56 1014.8
20260504194623 92 269 4.0 9.0 0.00 0.00 0.00 54 1014.8
20260504194119 91 168 3.0 7.0 0.00 0.00 0.00 54 1015.0
20260504193615 91 151 2.0 8.0 0.00 0.00 0.00 54 1015.0
20260504193114 89 172 2.0 4.0 0.00 0.00 0.00 56 1014.7
20260504192612 90 89 5.0 10.0 0.00 0.00 0.00 56 1014.9
20260504192110 92 172 2.0 9.0 0.00 0.00 0.00 53 1015.0
20260504191608 93 192 3.0 7.0 0.00 0.00 0.00 51 1015.0
20260504191104 92 286 3.0 3.0 0.00 0.00 0.00 49 1014.9
20260504190600 92 209 3.0 6.0 0.00 0.00 0.00 49 1015.0
20260504190056 92 154 2.0 16.0 0.00 0.00 0.00 50 1014.8
20260504185553 92 80 5.0 7.0 0.00 0.00 0.00 50 1015.0
20260504185050 92 80 2.0 3.0 0.00 0.00 0.00 49 1015.1
20260504184545 92 310 2.0 6.0 0.00 0.00 0.00 49 1015.3
20260504184041 92 211 1.0 9.0 0.00 0.00 0.00 49 1015.3
20260504183538 92 279 0.0 7.0 0.00 0.00 0.00 49 1015.5
20260504183036 92 201 4.0 8.0 0.00 0.00 0.00 49 1015.5
20260504182532 91 231 5.0 7.0 0.00 0.00 0.00 50 1015.4
20260504182030 91 230 2.0 7.0 0.00 0.00 0.00 51 1015.5
20260504181527 91 181 4.0 9.0 0.00 0.00 0.00 51 1015.4
20260504181025 91 195 4.0 7.0 0.00 0.00 0.00 51 1015.7
20260504180524 91 150 4.0 8.0 0.00 0.00 0.00 50 1015.7
20260504180022 91 202 6.0 10.0 0.00 0.00 0.00 50 1015.7
20260504175519 91 208 2.0 6.0 0.00 0.00 0.00 52 1015.8
20260504175016 91 209 6.0 8.0 0.00 0.00 0.00 51 1015.7
20260504174514 92 183 1.0 9.0 0.00 0.00 0.00 49 1015.8
20260504174011 92 227 1.0 7.0 0.00 0.00 0.00 49 1016.0
20260504173507 91 117 4.0 11.0 0.00 0.00 0.00 49 1015.9
20260504173005 92 78 3.0 10.0 0.00 0.00 0.00 48 1016.0
20260504172501 92 216 2.0 6.0 0.00 0.00 0.00 48 1016.1
20260504171957 92 311 3.0 8.0 0.00 0.00 0.00 48 1016.0
20260504171454 91 222 2.0 6.0 0.00 0.00 0.00 50 1016.3
20260504170951 91 196 4.0 9.0 0.00 0.00 0.00 47 1016.3
20260504170447 91 202 7.0 9.0 0.00 0.00 0.00 48 1016.5
20260504160407 89 194 2.0 8.0 0.00 0.00 0.00 52 1017.2
20260504150831 88 158 2.0 6.0 0.00 0.00 0.00 58 1017.6
20260504150328 88 232 4.0 8.0 0.00 0.00 0.00 58 1017.6
20260504141258 86 198 1.0 13.0 0.00 0.00 0.00 65 1017.4
20260504140754 86 207 2.0 8.0 0.00 0.00 0.00 65 1017.6
20260504140250 86 200 5.0 6.0 0.00 0.00 0.00 65 1017.5
20260504130719 84 43 3.0 6.0 0.00 0.00 0.00 70 1017.8
20260504130214 84 258 2.0 8.0 0.00 0.00 0.00 70 1017.6
20260504120139 82 131 1.0 6.0 0.00 0.00 0.00 73 1018.1
20260504110606 78 99 0.0 0.0 0.00 0.00 0.00 84 1017.7
20260504100533 75 69 0.0 1.0 0.00 0.00 0.00 91 1017.4
20260504081927 76 83 0.0 0.0 0.00 0.00 0.00 89 1016.5
20260504081424 76 127 1.0 1.0 0.00 0.00 0.00 89 1016.5
20260504080920 76 122 0.0 1.0 0.00 0.00 0.00 89 1016.8
20260504080417 76 121 0.0 0.0 0.00 0.00 0.00 89 1016.8
20260504070344 76 55 0.0 0.0 0.00 0.00 0.00 88 1016.5
20260504050732 78 102 0.0 2.0 0.00 0.00 0.00 84 1017.5
20260504050229 78 125 1.0 2.0 0.00 0.00 0.00 84 1017.7
20260504045726 78 75 0.0 1.0 0.00 0.00 0.00 84 1017.6
20260504045221 78 139 1.0 2.0 0.00 0.00 0.00 84 1017.8
20260504044719 78 121 0.0 1.0 0.00 0.00 0.00 83 1017.9
20260504044216 78 122 0.0 1.0 0.00 0.00 0.00 83 1017.9
20260504043713 78 76 0.0 1.0 0.00 0.00 0.00 83 1018.0
20260504043210 78 141 0.0 1.0 0.00 0.00 0.00 83 1018.1
20260504042708 78 57 0.0 0.0 0.00 0.00 0.00 83 1018.0
20260504042204 78 72 0.0 1.0 0.00 0.00 0.00 83 1018.0
20260504041659 78 108 0.0 1.0 0.00 0.00 0.00 82 1018.2
20260504041155 78 90 0.0 1.0 0.00 0.00 0.00 82 1018.1
20260504040653 79 152 0.0 1.0 0.00 0.00 0.00 82 1018.4
20260504040150 78 121 0.0 1.0 0.00 0.00 0.00 82 1018.2
20260504035646 79 108 0.0 1.0 0.00 0.00 0.00 82 1018.6
20260504035143 79 134 0.0 2.0 0.00 0.00 0.00 82 1018.5
20260504034641 78 81 0.0 2.0 0.00 0.00 0.00 82 1018.4
20260504034138 78 86 1.0 2.0 0.00 0.00 0.00 82 1018.7
20260504033635 78 138 0.0 1.0 0.00 0.00 0.00 82 1018.7
20260504033132 78 116 0.0 0.0 0.00 0.00 0.00 82 1018.7
20260504032629 78 183 0.0 1.0 0.00 0.00 0.00 82 1018.5
20260504032126 78 122 0.0 1.0 0.00 0.00 0.00 82 1018.6
20260504031623 78 131 0.0 3.0 0.00 0.00 0.00 82 1018.6
20260504031119 78 125 0.0 1.0 0.00 0.00 0.00 82 1018.5
20260504030616 78 126 0.0 1.0 0.00 0.00 0.00 82 1018.6
20260504030113 78 52 0.0 0.0 0.00 0.00 0.00 82 1018.5
20260504025610 78 52 0.0 0.0 0.00 0.00 0.00 81 1018.5
20260504025107 78 47 0.0 0.0 0.00 0.00 0.00 81 1018.4
20260504024604 78 58 0.0 0.0 0.00 0.00 0.00 80 1018.5
20260504024101 79 63 0.0 0.0 0.00 0.00 0.00 79 1018.3
20260504023557 78 65 0.0 0.0 0.00 0.00 0.00 80 1018.4
20260504023053 78 97 0.0 0.0 0.00 0.00 0.00 79 1018.4
20260504022549 79 63 0.0 0.0 0.00 0.00 0.00 79 1018.1
20260504022046 79 63 0.0 0.0 0.00 0.00 0.00 78 1018.2
20260504021543 79 52 0.0 1.0 0.00 0.00 0.00 77 1018.0
20260504021040 79 100 0.0 0.0 0.00 0.00 0.00 77 1018.0
20260504020537 79 98 0.0 0.0 0.00 0.00 0.00 77 1018.0
20260504020034 79 157 0.0 1.0 0.00 0.00 0.00 76 1018.1
20260504015530 79 48 0.0 1.0 0.00 0.00 0.00 76 1018.0
20260504015026 79 55 0.0 1.0 0.00 0.00 0.00 75 1017.8
20260504014522 79 43 0.0 0.0 0.00 0.00 0.00 75 1017.9
20260504014019 80 15 0.0 0.0 0.00 0.00 0.00 74 1018.0
20260504013517 79 15 0.0 0.0 0.00 0.00 0.00 74 1017.9
20260504013014 79 14 0.0 0.0 0.00 0.00 0.00 74 1017.9
20260504012512 80 50 0.0 0.0 0.00 0.00 0.00 74 1018.0
20260504012009 80 53 0.0 1.0 0.00 0.00 0.00 73 1017.7
20260504011505 80 241 0.0 2.0 0.00 0.00 0.00 73 1017.8
20260504011001 80 219 0.0 1.0 0.00 0.00 0.00 73 1017.9
20260504010457 80 342 0.0 1.0 0.00 0.00 0.00 73 1017.7
20260504005953 80 207 0.0 1.0 0.00 0.00 0.00 73 1017.7
20260504005450 80 100 0.0 1.0 0.00 0.00 0.00 72 1017.6
20260504004948 80 147 2.0 3.0 0.00 0.00 0.00 72 1017.7
20260504004445 80 218 2.0 2.0 0.00 0.00 0.00 72 1017.6
20260504003943 80 250 1.0 1.0 0.00 0.00 0.00 72 1017.7
20260504003438 80 211 1.0 2.0 0.00 0.00 0.00 72 1017.7
20260504002935 80 197 0.0 3.0 0.00 0.00 0.00 72 1017.4
20260504002432 80 208 2.0 4.0 0.00 0.00 0.00 71 1017.3
20260504001930 80 205 1.0 3.0 0.00 0.00 0.00 71 1017.4
20260504001427 80 75 1.0 1.0 0.00 0.00 0.00 71 1017.2
20260504000924 80 342 1.0 1.0 0.00 0.00 0.00 71 1017.3
20260504000423 80 333 0.0 1.0 0.00 0.00 0.00 71 1017.1
20260503235918 80 246 0.0 1.0 0.00 0.00 0.00 70 1017.1
20260503235416 80 60 2.0 6.0 0.00 0.00 0.00 70 1017.0
20260503234913 81 93 1.0 2.0 0.00 0.00 0.00 70 1017.2
20260503234411 81 42 0.0 3.0 0.00 0.00 0.00 69 1017.0
20260503233908 81 147 1.0 3.0 0.00 0.00 0.00 69 1016.8
20260503233405 81 25 0.0 0.0 0.00 0.00 0.00 68 1016.7
20260503232901 82 348 0.0 1.0 0.00 0.00 0.00 68 1016.7
20260503232358 82 83 0.0 2.0 0.00 0.00 0.00 67 1016.7
20260503231856 82 167 0.0 4.0 0.00 0.00 0.00 66 1016.6